Other Public Products
Issued by NWS Charleston, SC

Current Version | Previous Version | Text Only | Print | Product List | Glossary Off
Versions: 1 2 3 4 5 6 7 8 9 10 11 12 13 14 15 16 17 18 19 20 21 22 23 24 25 26 27 28 29 30 31 32 33 34 35 36 37 38 39 40 41 42 43 44 45 46 47 48 49 50
761 FPUS82 KCHS 202027 OPUCHS TEST...KCHS/KSAV Gateway Observations...TEST National Weather Service Charleston SC 400 PM EDT FRI APR 20 2018 NOTE: "fair" indicates few or no clouds below 12,000 feet with no significant weather and/or obstructions to visibility. SCZ050-WAZ558-NCZ071-TXZ119-213-PAZ071-DCZ001-FLZ074-172-MI076- NYZ176-178-MAZ016-IL014-TNZ027-NJZ106-GAZ044-MD014-202100- ...Gateway Observations for Charleston International... CITY SKY/WX TMP DP RH WIND PRES REMARKS Chas Airport FAIR 67 39 35 E9 30.27F Seattle PTSUNNY 58 36 43 SW9 30.21F Charlotte FAIR 66 30 26 N9 30.31F Dallas DFW MOSUNNY 66 38 35 SE15G22 30.16F Dallas Love CLOUDY 68 40 35 SE16G23 30.18F Philladelphia FAIR 54 25 32 NW20G25 30.23F Wash National FAIR 60 26 27 NW18G25 30.27F Baltimore FAIR 57 27 31 W20G25 30.25S Miami FAIR 85 66 53 E9 30.06S Detroit FAIR 58 18 21 NE7 30.44F Newark FAIR 53 24 32 NW15G25 30.20S Laguardia FAIR 50 25 37 NW20G25 30.19S J F K FAIR 51 25 36 NW16G26 30.19R Boston Logan PTSUNNY 52 27 38 N16G29 30.05R Ft. Lauderdale FAIR 83 66 56 E10 30.06S Chicago O`Hare FAIR 59 18 20 E3 30.45F Chicago Midway PTSUNNY 59 17 19 NE12 30.47F Houston Bush PTSUNNY 65 46 50 E10 30.19F Houston Hobby CLOUDY 65 50 58 E12 30.17F Nashville FAIR 67 32 27 N10 30.36F Atlanta FAIR 66 28 24 E10G18 30.29F $$ GAZ044-118-TXZ119-213-NCZ071-DCZ001-MDZ014-506-PAZ021-071-NJZ106- NYZ176-178-MAZ106-OHZ011-021-055-MIZ076-KYZ091-ILZ014-INZ047- MNZ060-ONZ431-202100- ...Gateway Observations for Savannah International... CITY SKY/WX TMP DP RH WIND PRES REMARKS Savannah Arpt FAIR 68 39 34 N6 30.27F Atlanta FAIR 66 28 24 E10G18 30.29F Charlotte FAIR 66 30 26 N9 30.31F Dallas DFW MOSUNNY 66 38 35 SE15G22 30.16F Houston Bush PTSUNNY 65 46 50 E10 30.19F Wash National FAIR 60 26 27 NW18G25 30.27F Wash Dulles FAIR 59 25 27 NW15G23 30.27F Baltimore FAIR 57 27 31 W20G25 30.25S Philadelphia FAIR 54 25 32 NW20G25 30.23F Newark FAIR 53 24 32 NW15G25 30.20S Laguardia FAIR 50 25 37 NW20G25 30.19S J F K FAIR 51 25 36 NW16G26 30.19R Boston PTSUNNY 52 27 38 N16G29 30.05R Pittsburg FAIR 52 21 29 NW17 30.38S Akron FAIR 51 16 24 N12G18 30.42F Cleveland FAIR 48 21 34 NW10 30.48F Cincinnati FAIR 59 23 25 N8 30.43F Columbus FAIR 55 22 27 N8 30.42F Detroit FAIR 58 18 21 NE7 30.44F Chicago O`Hare FAIR 59 18 20 E3 30.45F Minneapolis FAIR 50 17 27 VRB6 30.46F Indianapolis FAIR 60 22 23 NE7 30.44F Toronto Canada MOSUNNY 45 23 42 N8G18 30.39S $$

USA.gov is the U.S. government's official web portal to all federal, state and local government web resources and services.